Year,Month,Day,Hour,Minute,Value (Times are PST for temperature in C)
2011,07,24,00,00,13.30
2011,07,24,00,01,13.30
2011,07,24,00,02,13.30
2011,07,24,00,03,13.30
2011,07,24,00,04,13.30
2011,07,24,00,05,13.30
2011,07,24,00,06,13.20
2011,07,24,00,07,13.20
2011,07,24,00,08,13.20
2011,07,24,00,09,13.20
2011,07,24,00,10,13.20
2011,07,24,00,11,13.20
2011,07,24,00,12,13.10
2011,07,24,00,13,13.10
2011,07,24,00,14,13.10
2011,07,24,00,15,13.10
2011,07,24,00,16,13.10
2011,07,24,00,17,13.00
2011,07,24,00,18,13.00
2011,07,24,00,19,13.00
2011,07,24,00,20,13.00
2011,07,24,00,21,13.00
2011,07,24,00,22,13.00
2011,07,24,00,23,12.90
2011,07,24,00,24,12.90
2011,07,24,00,25,12.90
2011,07,24,00,26,12.90
2011,07,24,00,27,12.90
2011,07,24,00,28,12.90
2011,07,24,00,29,12.90
2011,07,24,00,30,12.90
2011,07,24,00,31,12.80
2011,07,24,00,32,12.80
2011,07,24,00,33,12.80
2011,07,24,00,34,12.80
2011,07,24,00,35,12.80
2011,07,24,00,36,12.80
2011,07,24,00,37,12.80
2011,07,24,00,38,12.70
2011,07,24,00,39,12.70
2011,07,24,00,40,12.70
2011,07,24,00,41,12.70
2011,07,24,00,42,12.70
2011,07,24,00,43,12.70
2011,07,24,00,44,12.70
2011,07,24,00,45,12.70
2011,07,24,00,46,12.70
2011,07,24,00,47,12.60
2011,07,24,00,48,12.60
2011,07,24,00,49,12.60
2011,07,24,00,50,12.60
2011,07,24,00,51,12.60
2011,07,24,00,52,12.60
2011,07,24,00,53,12.50
2011,07,24,00,54,12.50
2011,07,24,00,55,12.50
2011,07,24,00,56,12.50
2011,07,24,00,57,12.40
2011,07,24,00,58,12.40
2011,07,24,00,59,12.40
2011,07,24,01,00,12.40
2011,07,24,01,01,12.40
2011,07,24,01,02,12.30
2011,07,24,01,03,12.30
2011,07,24,01,04,12.30
2011,07,24,01,05,12.30
2011,07,24,01,06,12.30
2011,07,24,01,07,12.30
2011,07,24,01,08,12.30
2011,07,24,01,09,12.30
2011,07,24,01,10,12.30
2011,07,24,01,11,12.20
2011,07,24,01,12,12.20
2011,07,24,01,13,12.20
2011,07,24,01,14,12.20
2011,07,24,01,15,12.20
2011,07,24,01,16,12.20
2011,07,24,01,17,12.20
2011,07,24,01,18,12.20
2011,07,24,01,19,12.20
2011,07,24,01,20,12.10
2011,07,24,01,21,12.10
2011,07,24,01,22,12.10
2011,07,24,01,23,12.10
2011,07,24,01,24,12.10
2011,07,24,01,25,12.10
2011,07,24,01,26,12.10
2011,07,24,01,27,12.10
2011,07,24,01,28,12.10
2011,07,24,01,29,12.00
2011,07,24,01,30,12.00
2011,07,24,01,31,12.00
2011,07,24,01,32,12.00
2011,07,24,01,33,12.00
2011,07,24,01,34,12.00
2011,07,24,01,35,12.00
2011,07,24,01,36,11.90
2011,07,24,01,37,11.90
2011,07,24,01,38,11.90
2011,07,24,01,39,11.90
2011,07,24,01,40,11.90
2011,07,24,01,41,11.90
2011,07,24,01,42,11.90
2011,07,24,01,43,11.90
2011,07,24,01,44,11.90
2011,07,24,01,45,11.90
2011,07,24,01,46,11.90
2011,07,24,01,47,11.90
2011,07,24,01,48,11.90
2011,07,24,01,49,11.90
2011,07,24,01,50,11.90
2011,07,24,01,51,11.80
2011,07,24,01,52,11.80
2011,07,24,01,53,11.80
2011,07,24,01,54,11.80
2011,07,24,01,55,11.80
2011,07,24,01,56,11.80
2011,07,24,01,57,11.80
2011,07,24,01,58,11.80
2011,07,24,01,59,11.70
2011,07,24,02,00,11.70
2011,07,24,02,01,11.70
2011,07,24,02,02,11.70
2011,07,24,02,03,11.70
2011,07,24,02,04,11.70
2011,07,24,02,05,11.70
2011,07,24,02,06,11.70
2011,07,24,02,07,11.70
2011,07,24,02,08,11.60
2011,07,24,02,09,11.60
2011,07,24,02,10,11.60
2011,07,24,02,11,11.60
2011,07,24,02,12,11.60
2011,07,24,02,13,11.60
2011,07,24,02,14,11.60
2011,07,24,02,15,11.60
2011,07,24,02,16,11.60
2011,07,24,02,17,11.60
2011,07,24,02,18,11.60
2011,07,24,02,19,11.60
2011,07,24,02,20,11.60
2011,07,24,02,21,11.50
2011,07,24,02,22,11.50
2011,07,24,02,23,11.50
2011,07,24,02,24,11.50
2011,07,24,02,25,11.50
2011,07,24,02,26,11.50
2011,07,24,02,27,11.40
2011,07,24,02,28,11.40
2011,07,24,02,29,11.40
2011,07,24,02,30,11.40
2011,07,24,02,31,11.40
2011,07,24,02,32,11.40
2011,07,24,02,33,11.40
2011,07,24,02,34,11.40
2011,07,24,02,35,11.30
2011,07,24,02,36,11.30
2011,07,24,02,37,11.30
2011,07,24,02,38,11.30
2011,07,24,02,39,11.30
2011,07,24,02,40,11.30
2011,07,24,02,41,11.30
2011,07,24,02,42,11.30
2011,07,24,02,43,11.30
2011,07,24,02,44,11.20
2011,07,24,02,45,11.20
2011,07,24,02,46,11.20
2011,07,24,02,47,11.20
2011,07,24,02,48,11.20
2011,07,24,02,49,11.20
2011,07,24,02,50,11.20
2011,07,24,02,51,11.20
2011,07,24,02,52,11.20
2011,07,24,02,53,11.20
2011,07,24,02,54,11.20
2011,07,24,02,55,11.20
2011,07,24,02,56,11.20
2011,07,24,02,57,11.20
2011,07,24,02,58,11.20
2011,07,24,02,59,11.20
2011,07,24,03,00,11.20
2011,07,24,03,01,11.10
2011,07,24,03,02,11.10
2011,07,24,03,03,11.10
2011,07,24,03,04,11.10
2011,07,24,03,05,11.10
2011,07,24,03,06,11.10
2011,07,24,03,07,11.10
2011,07,24,03,08,11.10
2011,07,24,03,09,11.10
2011,07,24,03,10,11.10
2011,07,24,03,11,11.10
2011,07,24,03,12,11.10
2011,07,24,03,13,11.10
2011,07,24,03,14,11.10
2011,07,24,03,15,11.00
2011,07,24,03,16,11.00
2011,07,24,03,17,11.00
2011,07,24,03,18,11.00
2011,07,24,03,19,11.00
2011,07,24,03,20,11.00
2011,07,24,03,21,11.00
2011,07,24,03,22,10.90
2011,07,24,03,23,10.90
2011,07,24,03,24,10.90
2011,07,24,03,25,10.90
2011,07,24,03,26,10.90
2011,07,24,03,27,10.90
2011,07,24,03,28,10.90
2011,07,24,03,29,10.90
2011,07,24,03,30,10.90
2011,07,24,03,31,10.90
2011,07,24,03,32,10.90
2011,07,24,03,33,10.90
2011,07,24,03,34,10.90
2011,07,24,03,35,10.90
2011,07,24,03,36,10.90
2011,07,24,03,37,10.90
2011,07,24,03,38,10.90
2011,07,24,03,39,10.90
2011,07,24,03,40,10.90
2011,07,24,03,41,10.90
2011,07,24,03,42,10.80
2011,07,24,03,43,10.80
2011,07,24,03,44,10.80
2011,07,24,03,45,10.80
2011,07,24,03,46,10.80
2011,07,24,03,47,10.80
2011,07,24,03,48,10.80
2011,07,24,03,49,10.80
2011,07,24,03,50,10.80
2011,07,24,03,51,10.80
2011,07,24,03,52,10.80
2011,07,24,03,53,10.80
2011,07,24,03,54,10.80
2011,07,24,03,55,10.80
2011,07,24,03,56,10.80
2011,07,24,03,57,10.80
2011,07,24,03,58,10.80
2011,07,24,03,59,10.80
2011,07,24,04,00,10.80
2011,07,24,04,01,10.80
2011,07,24,04,02,10.80
2011,07,24,04,03,10.80
2011,07,24,04,04,10.80
2011,07,24,04,05,10.80
2011,07,24,04,06,10.80
2011,07,24,04,07,10.70
2011,07,24,04,08,10.70
2011,07,24,04,09,10.70
2011,07,24,04,10,10.70
2011,07,24,04,11,10.70
2011,07,24,04,12,10.70
2011,07,24,04,13,10.70
2011,07,24,04,14,10.70
2011,07,24,04,15,10.70
2011,07,24,04,16,10.70
2011,07,24,04,17,10.70
2011,07,24,04,18,10.70
2011,07,24,04,19,10.70
2011,07,24,04,20,10.70
2011,07,24,04,21,10.70
2011,07,24,04,22,10.70
2011,07,24,04,23,10.70
2011,07,24,04,24,10.70
2011,07,24,04,25,10.70
2011,07,24,04,26,10.70
2011,07,24,04,27,10.70
2011,07,24,04,28,10.70
2011,07,24,04,29,10.70
2011,07,24,04,30,10.70
2011,07,24,04,31,10.70
2011,07,24,04,32,10.70
2011,07,24,04,33,10.70
2011,07,24,04,34,10.70
2011,07,24,04,35,10.70
2011,07,24,04,36,10.70
2011,07,24,04,37,10.70
2011,07,24,04,38,10.70
2011,07,24,04,39,10.70
2011,07,24,04,40,10.70
2011,07,24,04,41,10.60
2011,07,24,04,42,10.60
2011,07,24,04,43,10.60
2011,07,24,04,44,10.60
2011,07,24,04,45,10.60
2011,07,24,04,46,10.60
2011,07,24,04,47,10.60
2011,07,24,04,48,10.60
2011,07,24,04,49,10.60
2011,07,24,04,50,10.60
2011,07,24,04,51,10.60
2011,07,24,04,52,10.60
2011,07,24,04,53,10.60
2011,07,24,04,54,10.60
2011,07,24,04,55,10.60
2011,07,24,04,56,10.60
2011,07,24,04,57,10.60
2011,07,24,04,58,10.60
2011,07,24,04,59,10.60
2011,07,24,05,00,10.60
2011,07,24,05,01,10.60
2011,07,24,05,02,10.60
2011,07,24,05,03,10.60
2011,07,24,05,04,10.60
2011,07,24,05,05,10.60
2011,07,24,05,06,10.60
2011,07,24,05,07,10.60
2011,07,24,05,08,10.60
2011,07,24,05,09,10.60
2011,07,24,05,10,10.60
2011,07,24,05,11,10.60
2011,07,24,05,12,10.50
2011,07,24,05,13,10.50
2011,07,24,05,14,10.50
2011,07,24,05,15,10.50
2011,07,24,05,16,10.50
2011,07,24,05,17,10.50
2011,07,24,05,18,10.50
2011,07,24,05,19,10.50
2011,07,24,05,20,10.50
2011,07,24,05,21,10.50
2011,07,24,05,22,10.50
2011,07,24,05,23,10.50
2011,07,24,05,24,10.40
2011,07,24,05,25,10.40
2011,07,24,05,26,10.40
2011,07,24,05,27,10.40
2011,07,24,05,28,10.40
2011,07,24,05,29,10.40
2011,07,24,05,30,10.40
2011,07,24,05,31,10.40
2011,07,24,05,32,10.40
2011,07,24,05,33,10.40
2011,07,24,05,34,10.40
2011,07,24,05,35,10.40
2011,07,24,05,36,10.40
2011,07,24,05,37,10.40
2011,07,24,05,38,10.40
2011,07,24,05,39,10.40
2011,07,24,05,40,10.40
2011,07,24,05,41,10.40
2011,07,24,05,42,10.40
2011,07,24,05,43,10.40
2011,07,24,05,44,10.40
2011,07,24,05,45,10.40
2011,07,24,05,46,10.40
2011,07,24,05,47,10.40
2011,07,24,05,48,10.40
2011,07,24,05,49,10.40
2011,07,24,05,50,10.30
2011,07,24,05,51,10.30
2011,07,24,05,52,10.30
2011,07,24,05,53,10.30
2011,07,24,05,54,10.30
2011,07,24,05,55,10.30
2011,07,24,05,56,10.30
2011,07,24,05,57,10.30
2011,07,24,05,58,10.30
2011,07,24,05,59,10.30
2011,07,24,06,00,10.30
2011,07,24,06,01,10.30
2011,07,24,06,02,10.30
2011,07,24,06,03,10.30
2011,07,24,06,04,10.30
2011,07,24,06,05,10.30
2011,07,24,06,06,10.30
2011,07,24,06,07,10.30
2011,07,24,06,08,10.30
2011,07,24,06,09,10.30
2011,07,24,06,10,10.30
2011,07,24,06,11,10.30
2011,07,24,06,12,10.30
2011,07,24,06,13,10.40
2011,07,24,06,14,10.40
2011,07,24,06,15,10.40
2011,07,24,06,16,10.40
2011,07,24,06,17,10.40
2011,07,24,06,18,10.40
2011,07,24,06,19,10.40
2011,07,24,06,20,10.40
2011,07,24,06,21,10.40
2011,07,24,06,22,10.40
2011,07,24,06,23,10.40
2011,07,24,06,24,10.40
2011,07,24,06,25,10.40
2011,07,24,06,26,10.40
2011,07,24,06,27,10.40
2011,07,24,06,28,10.40
2011,07,24,06,29,10.40
2011,07,24,06,30,10.40
2011,07,24,06,31,10.40
2011,07,24,06,32,10.40
2011,07,24,06,33,10.40
2011,07,24,06,34,10.40
2011,07,24,06,35,10.40
2011,07,24,06,36,10.40
2011,07,24,06,37,10.40
2011,07,24,06,38,10.40
2011,07,24,06,39,10.40
2011,07,24,06,40,10.40
2011,07,24,06,41,10.40
2011,07,24,06,42,10.40
2011,07,24,06,43,10.40
2011,07,24,06,44,10.40
2011,07,24,06,45,10.40
2011,07,24,06,46,10.40
2011,07,24,06,47,10.40
2011,07,24,06,48,10.40
2011,07,24,06,49,10.40
2011,07,24,06,50,10.40
2011,07,24,06,51,10.40
2011,07,24,06,52,10.40
2011,07,24,06,53,10.40
2011,07,24,06,54,10.40
2011,07,24,06,55,10.40
2011,07,24,06,56,10.50
2011,07,24,06,57,10.50
2011,07,24,06,58,10.50
2011,07,24,06,59,10.50
2011,07,24,07,00,10.50
2011,07,24,07,01,10.60
2011,07,24,07,02,10.60
2011,07,24,07,03,10.60
2011,07,24,07,04,10.60
2011,07,24,07,05,10.60
2011,07,24,07,06,10.60
2011,07,24,07,07,10.60
2011,07,24,07,08,10.60
2011,07,24,07,09,10.60
2011,07,24,07,10,10.60
2011,07,24,07,11,10.60
2011,07,24,07,12,10.60
2011,07,24,07,13,10.60
2011,07,24,07,14,10.60
2011,07,24,07,15,10.70
2011,07,24,07,16,10.70
2011,07,24,07,17,10.70
2011,07,24,07,18,10.70
2011,07,24,07,19,10.70
2011,07,24,07,20,10.70
2011,07,24,07,21,10.70
2011,07,24,07,22,10.70
2011,07,24,07,23,10.70
2011,07,24,07,24,10.70
2011,07,24,07,25,10.70
2011,07,24,07,26,10.80
2011,07,24,07,27,10.80
2011,07,24,07,28,10.80
2011,07,24,07,29,10.80
2011,07,24,07,30,10.80
2011,07,24,07,31,10.80
2011,07,24,07,32,10.80
2011,07,24,07,33,10.80
2011,07,24,07,34,10.90
2011,07,24,07,35,10.90
2011,07,24,07,36,10.90
2011,07,24,07,37,10.90
2011,07,24,07,38,11.00
2011,07,24,07,39,11.00
2011,07,24,07,40,11.00
2011,07,24,07,41,11.10
2011,07,24,07,42,11.10
2011,07,24,07,43,11.10
2011,07,24,07,44,11.20
2011,07,24,07,45,11.20
2011,07,24,07,46,11.20
2011,07,24,07,47,11.30
2011,07,24,07,48,11.30
2011,07,24,07,49,11.30
2011,07,24,07,50,11.30
2011,07,24,07,51,11.40
2011,07,24,07,52,11.40
2011,07,24,07,53,11.40
2011,07,24,07,54,11.50
2011,07,24,07,55,11.50
2011,07,24,07,56,11.60
2011,07,24,07,57,11.60
2011,07,24,07,58,11.60
2011,07,24,07,59,11.70
2011,07,24,08,00,11.70
2011,07,24,08,01,11.70
2011,07,24,08,02,11.80
2011,07,24,08,03,11.80
2011,07,24,08,04,11.80
2011,07,24,08,05,11.80
2011,07,24,08,06,11.90
2011,07,24,08,07,11.90
2011,07,24,08,08,11.90
2011,07,24,08,09,12.00
2011,07,24,08,10,12.00
2011,07,24,08,11,12.10
2011,07,24,08,12,12.10
2011,07,24,08,13,12.20
2011,07,24,08,14,12.20
2011,07,24,08,15,12.20
2011,07,24,08,16,12.30
2011,07,24,08,17,12.30
2011,07,24,08,18,12.40
2011,07,24,08,19,12.40
2011,07,24,08,20,12.40
2011,07,24,08,21,12.50
2011,07,24,08,22,12.50
2011,07,24,08,23,12.60
2011,07,24,08,24,12.60
2011,07,24,08,25,12.70
2011,07,24,08,26,12.70
2011,07,24,08,27,12.80
2011,07,24,08,28,12.80
2011,07,24,08,29,12.90
2011,07,24,08,30,12.90
2011,07,24,08,31,13.00
2011,07,24,08,32,13.00
2011,07,24,08,33,13.00
2011,07,24,08,34,13.10
2011,07,24,08,35,13.10
2011,07,24,08,36,13.20
2011,07,24,08,37,13.20
2011,07,24,08,38,13.30
2011,07,24,08,39,13.30
2011,07,24,08,40,13.30
2011,07,24,08,41,13.40
2011,07,24,08,42,13.40
2011,07,24,08,43,13.50
2011,07,24,08,44,13.60
2011,07,24,08,45,13.60
2011,07,24,08,46,13.70
2011,07,24,08,47,13.70
2011,07,24,08,48,13.80
2011,07,24,08,49,13.90
2011,07,24,08,50,13.90
2011,07,24,08,51,14.00
2011,07,24,08,52,14.00
2011,07,24,08,53,14.10
2011,07,24,08,54,14.10
2011,07,24,08,55,14.20
2011,07,24,08,56,14.20
2011,07,24,08,57,14.30
2011,07,24,08,58,14.30
2011,07,24,08,59,14.40
2011,07,24,09,00,14.40
2011,07,24,09,01,14.40
2011,07,24,09,02,14.50
2011,07,24,09,03,14.50
2011,07,24,09,04,14.60
2011,07,24,09,05,14.60
2011,07,24,09,06,14.60
2011,07,24,09,07,14.70
2011,07,24,09,08,14.70
2011,07,24,09,09,14.80
2011,07,24,09,10,14.90
2011,07,24,09,11,14.90
2011,07,24,09,12,15.00
2011,07,24,09,13,15.00
2011,07,24,09,14,15.00
2011,07,24,09,15,15.00
2011,07,24,09,16,15.10
2011,07,24,09,17,15.20
2011,07,24,09,18,15.20
2011,07,24,09,19,15.30
2011,07,24,09,20,15.40
2011,07,24,09,21,15.40
2011,07,24,09,22,15.50
2011,07,24,09,23,15.50
2011,07,24,09,24,15.60
2011,07,24,09,25,15.70
2011,07,24,09,26,15.70
2011,07,24,09,27,15.80
2011,07,24,09,28,15.80
2011,07,24,09,29,15.80
2011,07,24,09,30,15.90
2011,07,24,09,31,15.90
2011,07,24,09,32,16.00
2011,07,24,09,33,16.00
2011,07,24,09,34,16.10
2011,07,24,09,35,16.10
2011,07,24,09,36,16.10
2011,07,24,09,37,16.20
2011,07,24,09,38,16.20
2011,07,24,09,39,16.30
2011,07,24,09,40,16.30
2011,07,24,09,41,16.40
2011,07,24,09,42,16.40
2011,07,24,09,43,16.50
2011,07,24,09,44,16.50
2011,07,24,09,45,16.60
2011,07,24,09,46,16.60
2011,07,24,09,47,16.70
2011,07,24,09,48,16.70
2011,07,24,09,49,16.80
2011,07,24,09,50,16.80
2011,07,24,09,51,16.80
2011,07,24,09,52,16.90
2011,07,24,09,53,16.90
2011,07,24,09,54,17.00
2011,07,24,09,55,17.00
2011,07,24,09,56,17.10
2011,07,24,09,57,17.10
2011,07,24,09,58,17.20
2011,07,24,09,59,17.20
2011,07,24,10,00,17.30
2011,07,24,10,01,17.30
2011,07,24,10,02,17.30
2011,07,24,10,03,17.40
2011,07,24,10,04,17.40
2011,07,24,10,05,17.50
2011,07,24,10,06,17.50
2011,07,24,10,07,17.60
2011,07,24,10,08,17.60
2011,07,24,10,09,17.70
2011,07,24,10,10,17.70
2011,07,24,10,11,17.80
2011,07,24,10,12,17.80
2011,07,24,10,13,17.90
2011,07,24,10,14,17.90
2011,07,24,10,15,17.90
2011,07,24,10,16,18.00
2011,07,24,10,17,18.00
2011,07,24,10,18,18.10
2011,07,24,10,19,18.10
2011,07,24,10,20,18.20
2011,07,24,10,21,18.20
2011,07,24,10,22,18.20
2011,07,24,10,23,18.30
2011,07,24,10,24,18.30
2011,07,24,10,25,18.40
2011,07,24,10,26,18.40
2011,07,24,10,27,18.40
2011,07,24,10,28,18.50
2011,07,24,10,29,18.60
2011,07,24,10,30,18.60
2011,07,24,10,31,18.60
2011,07,24,10,32,18.70
2011,07,24,10,33,18.70
2011,07,24,10,34,18.80
2011,07,24,10,35,18.80
2011,07,24,10,36,18.90
2011,07,24,10,37,18.90
2011,07,24,10,38,19.00
2011,07,24,10,39,19.10
2011,07,24,10,40,19.10
2011,07,24,10,41,19.20
2011,07,24,10,42,19.20
2011,07,24,10,43,19.30
2011,07,24,10,44,19.30
2011,07,24,10,45,19.40
2011,07,24,10,46,19.50
2011,07,24,10,47,19.50
2011,07,24,10,48,19.60
2011,07,24,10,49,19.70
2011,07,24,10,50,19.80
2011,07,24,10,51,19.80
2011,07,24,10,52,19.90
2011,07,24,10,53,20.00
2011,07,24,10,54,20.10
2011,07,24,10,55,20.20
2011,07,24,10,56,20.30
2011,07,24,10,57,20.40
2011,07,24,10,58,20.60
2011,07,24,10,59,20.70
2011,07,24,11,00,20.80
2011,07,24,11,01,20.90
2011,07,24,11,02,21.00
2011,07,24,11,03,21.10
2011,07,24,11,04,21.20
2011,07,24,11,05,21.30
2011,07,24,11,06,21.40
2011,07,24,11,07,21.50
2011,07,24,11,08,21.60
2011,07,24,11,09,21.70
2011,07,24,11,10,21.70
2011,07,24,11,11,21.80
2011,07,24,11,12,21.90
2011,07,24,11,13,22.00
2011,07,24,11,14,22.00
2011,07,24,11,15,22.10
2011,07,24,11,16,22.20
2011,07,24,11,17,22.20
2011,07,24,11,18,22.30
2011,07,24,11,19,22.30
2011,07,24,11,20,22.30
2011,07,24,11,21,22.40
2011,07,24,11,22,22.40
2011,07,24,11,23,22.50
2011,07,24,11,24,22.50
2011,07,24,11,25,22.60
2011,07,24,11,26,22.60
2011,07,24,11,27,22.60
2011,07,24,11,28,22.70
2011,07,24,11,29,22.70
2011,07,24,11,30,22.70
2011,07,24,11,31,22.80
2011,07,24,11,32,22.80
2011,07,24,11,33,22.80
2011,07,24,11,34,22.80
2011,07,24,11,35,22.90
2011,07,24,11,36,22.90
2011,07,24,11,37,23.00
2011,07,24,11,38,23.00
2011,07,24,11,39,23.00
2011,07,24,11,40,23.10
2011,07,24,11,41,23.10
2011,07,24,11,42,23.10
2011,07,24,11,43,23.10
2011,07,24,11,44,23.20
2011,07,24,11,45,23.20
2011,07,24,11,46,23.30
2011,07,24,11,47,23.30
2011,07,24,11,48,23.40
2011,07,24,11,49,23.40
2011,07,24,11,50,23.50
2011,07,24,11,51,23.50
2011,07,24,11,52,23.60
2011,07,24,11,53,23.60
2011,07,24,11,54,23.60
2011,07,24,11,55,23.70
2011,07,24,11,56,23.70
2011,07,24,11,57,23.80
2011,07,24,11,58,23.90
2011,07,24,11,59,23.90
2011,07,24,12,00,24.00
2011,07,24,12,01,24.10
2011,07,24,12,02,24.20
2011,07,24,12,03,24.20
2011,07,24,12,04,24.30
2011,07,24,12,05,24.30
2011,07,24,12,06,24.40
2011,07,24,12,07,24.50
2011,07,24,12,08,24.50
2011,07,24,12,09,24.60
2011,07,24,12,10,24.60
2011,07,24,12,11,24.60
2011,07,24,12,12,24.70
2011,07,24,12,13,24.70
2011,07,24,12,14,24.70
2011,07,24,12,15,24.70
2011,07,24,12,16,24.70
2011,07,24,12,17,24.80
2011,07,24,12,18,24.80
2011,07,24,12,19,24.80
2011,07,24,12,20,24.80
2011,07,24,12,21,24.90
2011,07,24,12,22,25.00
2011,07,24,12,23,25.10
2011,07,24,12,24,25.20
2011,07,24,12,25,25.30
2011,07,24,12,26,25.40
2011,07,24,12,27,25.50
2011,07,24,12,28,25.60
2011,07,24,12,29,25.70
2011,07,24,12,30,25.80
2011,07,24,12,31,25.80
2011,07,24,12,32,25.90
2011,07,24,12,33,25.90
2011,07,24,12,34,26.00
2011,07,24,12,35,26.10
2011,07,24,12,36,26.10
2011,07,24,12,37,26.10
2011,07,24,12,38,26.10
2011,07,24,12,39,26.20
2011,07,24,12,40,26.20
2011,07,24,12,41,26.10
2011,07,24,12,42,26.10
2011,07,24,12,43,26.10
2011,07,24,12,44,26.10
2011,07,24,12,45,26.10
2011,07,24,12,46,26.10
2011,07,24,12,47,26.10
2011,07,24,12,48,26.10
2011,07,24,12,49,26.20
2011,07,24,12,50,26.20
2011,07,24,12,51,26.30
2011,07,24,12,52,26.40
2011,07,24,12,53,26.40
2011,07,24,12,54,26.40
2011,07,24,12,55,26.40
2011,07,24,12,56,26.30
2011,07,24,12,57,26.40
2011,07,24,12,58,26.40
2011,07,24,12,59,26.50
2011,07,24,13,00,26.50
2011,07,24,13,01,26.60
2011,07,24,13,02,26.70
2011,07,24,13,03,26.80
2011,07,24,13,04,26.80
2011,07,24,13,05,26.90
2011,07,24,13,06,27.00
2011,07,24,13,07,27.00
2011,07,24,13,08,27.00
2011,07,24,13,09,27.10
2011,07,24,13,10,27.10
2011,07,24,13,11,27.10
2011,07,24,13,12,27.00
2011,07,24,13,13,27.00
2011,07,24,13,14,27.00
2011,07,24,13,15,27.00
2011,07,24,13,16,27.00
2011,07,24,13,17,27.00
2011,07,24,13,18,26.90
2011,07,24,13,19,26.80
2011,07,24,13,20,26.80
2011,07,24,13,21,26.80
2011,07,24,13,22,26.90
2011,07,24,13,23,26.90
2011,07,24,13,24,27.00
2011,07,24,13,25,27.10
2011,07,24,13,26,27.10
2011,07,24,13,27,27.20
2011,07,24,13,28,27.30
2011,07,24,13,29,27.40
2011,07,24,13,30,27.40
2011,07,24,13,31,27.50
2011,07,24,13,32,27.60
2011,07,24,13,33,27.60
2011,07,24,13,34,27.70
2011,07,24,13,35,27.80
2011,07,24,13,36,27.80
2011,07,24,13,37,27.80
2011,07,24,13,38,27.90
2011,07,24,13,39,27.90
2011,07,24,13,40,27.90
2011,07,24,13,41,28.00
2011,07,24,13,42,28.10
2011,07,24,13,43,28.20
2011,07,24,13,44,28.20
2011,07,24,13,45,28.10
2011,07,24,13,46,28.10
2011,07,24,13,47,28.10
2011,07,24,13,48,28.10
2011,07,24,13,49,28.10
2011,07,24,13,50,28.10
2011,07,24,13,51,28.00
2011,07,24,13,52,28.00
2011,07,24,13,53,27.90
2011,07,24,13,54,27.90
2011,07,24,13,55,27.90
2011,07,24,13,56,28.00
2011,07,24,13,57,28.00
2011,07,24,13,58,28.10
2011,07,24,13,59,28.20
2011,07,24,14,00,28.20
2011,07,24,14,01,28.30
2011,07,24,14,02,28.40
2011,07,24,14,03,28.40
2011,07,24,14,04,28.50
2011,07,24,14,05,28.60
2011,07,24,14,06,28.70
2011,07,24,14,07,28.70
2011,07,24,14,08,28.50
2011,07,24,14,09,28.20
2011,07,24,14,10,28.10
2011,07,24,14,11,28.10
2011,07,24,14,12,28.10
2011,07,24,14,13,28.20
2011,07,24,14,14,28.30
2011,07,24,14,15,28.40
2011,07,24,14,16,28.60
2011,07,24,14,17,28.70
2011,07,24,14,18,28.80
2011,07,24,14,19,28.90
2011,07,24,14,20,29.00
2011,07,24,14,21,29.20
2011,07,24,14,22,29.20
2011,07,24,14,23,29.20
2011,07,24,14,24,29.20
2011,07,24,14,25,29.30
2011,07,24,14,26,29.30
2011,07,24,14,27,29.30
2011,07,24,14,28,29.20
2011,07,24,14,29,29.20
2011,07,24,14,30,29.10
2011,07,24,14,31,29.10
2011,07,24,14,32,29.10
2011,07,24,14,33,29.10
2011,07,24,14,34,29.20
2011,07,24,14,35,29.20
2011,07,24,14,36,29.20
2011,07,24,14,37,29.30
2011,07,24,14,38,29.20
2011,07,24,14,39,29.20
2011,07,24,14,40,29.30
2011,07,24,14,41,29.30
2011,07,24,14,42,29.30
2011,07,24,14,43,29.30
2011,07,24,14,44,29.30
2011,07,24,14,45,29.30
2011,07,24,14,46,29.30
2011,07,24,14,47,29.30
2011,07,24,14,48,29.30
2011,07,24,14,49,29.30
2011,07,24,14,50,29.30
2011,07,24,14,51,29.30
2011,07,24,14,52,29.30
2011,07,24,14,53,29.40
2011,07,24,14,54,29.40
2011,07,24,14,55,29.50
2011,07,24,14,56,29.60
2011,07,24,14,57,29.60
2011,07,24,14,58,29.70
2011,07,24,14,59,29.80
2011,07,24,15,00,29.90
2011,07,24,15,01,30.00
2011,07,24,15,02,30.10
2011,07,24,15,03,30.10
2011,07,24,15,04,30.20
2011,07,24,15,05,30.20
2011,07,24,15,06,30.30
2011,07,24,15,07,30.30
2011,07,24,15,08,30.40
2011,07,24,15,09,30.40
2011,07,24,15,10,30.50
2011,07,24,15,11,30.50
2011,07,24,15,12,30.60
2011,07,24,15,13,30.60
2011,07,24,15,14,30.50
2011,07,24,15,15,30.40
2011,07,24,15,16,30.30
2011,07,24,15,17,30.20
2011,07,24,15,18,30.10
2011,07,24,15,19,30.10
2011,07,24,15,20,30.10
2011,07,24,15,21,30.10
2011,07,24,15,22,30.10
2011,07,24,15,23,30.10
2011,07,24,15,24,30.10
2011,07,24,15,25,30.10
2011,07,24,15,26,30.10
2011,07,24,15,27,30.00
2011,07,24,15,28,29.90
2011,07,24,15,29,29.80
2011,07,24,15,30,29.70
2011,07,24,15,31,29.60
2011,07,24,15,32,29.60
2011,07,24,15,33,29.50
2011,07,24,15,34,29.40
2011,07,24,15,35,29.40
2011,07,24,15,36,29.40
2011,07,24,15,37,29.30
2011,07,24,15,38,29.20
2011,07,24,15,39,29.20
2011,07,24,15,40,29.20
2011,07,24,15,41,29.30
2011,07,24,15,42,29.30
2011,07,24,15,43,29.40
2011,07,24,15,44,29.50
2011,07,24,15,45,29.50
2011,07,24,15,46,29.60
2011,07,24,15,47,29.60
2011,07,24,15,48,29.60
2011,07,24,15,49,29.50
2011,07,24,15,50,29.50
2011,07,24,15,51,29.40
2011,07,24,15,52,29.40
2011,07,24,15,53,29.40
2011,07,24,15,54,29.40
2011,07,24,15,55,29.40
2011,07,24,15,56,29.40
2011,07,24,15,57,29.40
2011,07,24,15,58,29.50
2011,07,24,15,59,29.50
2011,07,24,16,00,29.50
2011,07,24,16,01,29.50
2011,07,24,16,02,29.50
2011,07,24,16,03,29.50
2011,07,24,16,04,29.60
2011,07,24,16,05,29.60
2011,07,24,16,06,29.50
2011,07,24,16,07,29.50
2011,07,24,16,08,29.50
2011,07,24,16,09,29.50
2011,07,24,16,10,29.50
2011,07,24,16,11,29.50
2011,07,24,16,12,29.60
2011,07,24,16,13,29.60
2011,07,24,16,14,29.60
2011,07,24,16,15,29.70
2011,07,24,16,16,29.70
2011,07,24,16,17,29.70
2011,07,24,16,18,29.80
2011,07,24,16,19,29.80
2011,07,24,16,20,29.90
2011,07,24,16,21,29.90
2011,07,24,16,22,29.80
2011,07,24,16,23,29.80
2011,07,24,16,24,29.80
2011,07,24,16,25,29.70
2011,07,24,16,26,29.70
2011,07,24,16,27,29.60
2011,07,24,16,28,29.50
2011,07,24,16,29,29.50
2011,07,24,16,30,29.50
2011,07,24,16,31,29.60
2011,07,24,16,32,29.70
2011,07,24,16,33,29.70
2011,07,24,16,34,29.80
2011,07,24,16,35,29.80
2011,07,24,16,36,29.80
2011,07,24,16,37,29.90
2011,07,24,16,38,29.90
2011,07,24,16,39,30.00
2011,07,24,16,40,30.10
2011,07,24,16,41,30.20
2011,07,24,16,42,30.30
2011,07,24,16,43,30.30
2011,07,24,16,44,30.30
2011,07,24,16,45,30.30
2011,07,24,16,46,30.30
2011,07,24,16,47,30.20
2011,07,24,16,48,30.10
2011,07,24,16,49,30.00
2011,07,24,16,50,30.00
2011,07,24,16,51,30.00
2011,07,24,16,52,29.90
2011,07,24,16,53,29.90
2011,07,24,16,54,29.90
2011,07,24,16,55,29.90
2011,07,24,16,56,29.90
2011,07,24,16,57,30.00
2011,07,24,16,58,30.00
2011,07,24,16,59,30.10
2011,07,24,17,00,30.10
2011,07,24,17,01,30.10
2011,07,24,17,02,30.10
2011,07,24,17,03,30.10
2011,07,24,17,04,30.10
2011,07,24,17,05,30.00
2011,07,24,17,06,30.00
2011,07,24,17,07,30.00
2011,07,24,17,08,30.00
2011,07,24,17,09,29.80
2011,07,24,17,10,29.60
2011,07,24,17,11,29.50
2011,07,24,17,12,29.50
2011,07,24,17,13,29.40
2011,07,24,17,14,29.40
2011,07,24,17,15,29.40
2011,07,24,17,16,29.50
2011,07,24,17,17,29.50
2011,07,24,17,18,29.60
2011,07,24,17,19,29.60